Weather History for Watertown, NY

Change the Weather History Date:

Saturday, December 24, 2011

  Actual Average Record
Temperature  
Mean Temperature 16 °F 23 °F  
Max Temperature 23 °F 32 °F 55 °F (1964)
Min Temperature 9 °F 15 °F -17 °F (1989)
Degree Days  
Heating Degree Days 49 42  
Month to date heating degree days 753 898  
Since 1 July heating degree days 1959 2497  
Cooling Degree Days 0 0  
Month to date cooling degree days 0 0  
Year to date cooling degree days 513 362  
Moisture  
Dew Point 8 °F    
Average Humidity 72    
Maximum Humidity 92    
Minimum Humidity 52    
Precipitation  
Precipitation 0.00 in 0.10 in 0.70 in (1983)
Month to date precipitation 2.62 2.47  
Year to date precipitation 41.34 35.40  
Sea Level Pressure  
Sea Level Pressure 30.45 in    
Wind  
Wind Speed 5 mph (NNE)    
Max Wind Speed 13 mph    
Max Gust Speed 15 mph    
Visibility 10 miles    
Events      
T = Trace of Precipitation, MM = Missing Value Source: NWS Daily Summary

Daily Weather History Graph

Daily Weather History Graph

Search for Another Location

Airport:

Trip Planner

Search our weather history database for the weather conditions in past years. The results will help you decide how hot, cold, wet, or windy it might be!

Date:

Astronomy

Dec. 24, 2011 Rise Set
Actual Time 7:36 AM EST 4:30 PM EST
Civil Twilight 7:03 AM EST 5:03 PM EST
Nautical Twilight 6:27 AM EST 5:40 PM EST
Astronomical Twilight 5:52 AM EST 6:15 PM EST
Moon 7:22 AM EST (12/24) 4:41 PM EST (12/24)
Length of Visible Light 9h 59m
Length of Day
8h 53m
Waning Crescent, 0% of the Moon is Illuminated
Dec 24
Waning Crescent
Dec 24
New
Jan 1
First Quarter
Jan 9
Full
Jan 16
Last Quarter

Hourly Weather History & Observations

Time (EST) Temp. Windchill Dew Point Humidity Pressure Visibility Wind Dir Wind Speed Gust Speed Precip Events Conditions
12:56 AM 12.9 °F 2.6 °F 7.0 °F 77% 30.36 in 10.0 mi NNE 6.9 mph - N/A   Overcast
1:56 AM 12.9 °F 2.6 °F 8.1 °F 81% 30.38 in 10.0 mi NNE 6.9 mph - N/A   Overcast
2:48 AM 12.2 °F -0.2 °F 6.8 °F 79% 30.37 in 10.0 mi NNE 9.2 mph - N/A   Scattered Clouds
2:56 AM 12.9 °F 0.7 °F 7.0 °F 77% 30.40 in 10.0 mi NNE 9.2 mph - N/A   Partly Cloudy
3:30 AM 12.2 °F -0.2 °F 6.8 °F 79% 30.38 in 10.0 mi NNE 9.2 mph - N/A   Mostly Cloudy
3:54 AM 12.2 °F -0.2 °F 6.8 °F 79% 30.39 in 10.0 mi North 9.2 mph - N/A   Scattered Clouds
3:56 AM 12.2 °F -0.2 °F 6.8 °F 79% 30.39 in 10.0 mi NNE 9.2 mph - N/A   Scattered Clouds
4:56 AM 12.2 °F -0.2 °F 6.8 °F 79% 30.41 in 10.0 mi NNE 9.2 mph - N/A   Clear
5:56 AM 10.9 °F -2.6 °F 6.1 °F 81% 30.46 in 10.0 mi NE 10.4 mph - N/A   Scattered Clouds
6:56 AM 10.4 °F -0.4 °F 6.8 °F 85% 30.46 in 10.0 mi NNE 6.9 mph - N/A   Clear
7:56 AM 10.0 °F -0.9 °F 5.0 °F 80% 30.51 in 10.0 mi NNE 6.9 mph - N/A   Clear
8:56 AM 12.0 °F -0.4 °F 6.1 °F 77% 30.51 in 10.0 mi NE 9.2 mph - N/A   Clear
9:56 AM 14.0 °F 5.1 °F 7.0 °F 74% 30.55 in 10.0 mi Variable 5.8 mph - N/A   Clear
10:56 AM 16.0 °F 8.8 °F 8.1 °F 71% 30.55 in 10.0 mi NNE 4.6 mph - N/A   Clear
11:56 AM 18.0 °F 9.8 °F 8.1 °F 65% 30.53 in 10.0 mi North 5.8 mph - N/A   Clear
12:56 PM 19.9 °F - 8.1 °F 60% 30.51 in 10.0 mi Calm Calm - N/A   Clear
1:56 PM 21.9 °F - 7.0 °F 53% 30.52 in 10.0 mi Calm Calm - N/A   Clear
2:56 PM 21.9 °F - 7.0 °F 53% 30.51 in 10.0 mi Calm Calm - N/A   Clear
3:56 PM 19.9 °F 13.4 °F 6.1 °F 55% 30.48 in 10.0 mi East 4.6 mph - N/A   Clear
4:56 PM 16.0 °F 10.4 °F 9.0 °F 74% 30.47 in 10.0 mi NE 3.5 mph - N/A   Clear
5:56 PM 15.1 °F - 10.0 °F 80% 30.47 in 10.0 mi Calm Calm - N/A   Clear
6:56 PM 12.9 °F - 10.0 °F 88% 30.47 in 10.0 mi Calm Calm - N/A   Clear
7:56 PM 12.0 °F - 10.0 °F 92% 30.47 in 10.0 mi Calm Calm - N/A   Clear
8:56 PM 12.0 °F - 9.0 °F 88% 30.44 in 10.0 mi Calm Calm - N/A   Clear
9:56 PM 12.9 °F 5.2 °F 10.0 °F 88% 30.41 in 10.0 mi ENE 4.6 mph - N/A   Clear
10:56 PM 14.0 °F 6.5 °F 10.9 °F 88% 30.38 in 10.0 mi NE 4.6 mph - N/A   Clear
11:56 PM 15.1 °F 9.4 °F 10.9 °F 84% 30.34 in 10.0 mi East 3.5 mph - N/A   Clear